BAW2720 LIBD-LDDU

Flight info

Callsign BAW2720
Flight time 0h 21m
Altitude 23000
Route DCT
Aircraft A21N/M-SDE2E3FGHIRWXY/LB1

Departure

Time 2026-04-29 15:10
Airport Bari Karol Wojtyła International Airport (LIBD)

Arrival

Time 2026-04-29 15:32
Airport Dubrovnik Ruđer Bošković Airport (LDDU)
Time Latitude Longitude Altitude Speed Heading
2026-04-29 15:03 41.13617 16.76160 145 ft 0 kts 16°
2026-04-29 15:07 41.13616 16.76159 145 ft 2 kts 19°
2026-04-29 15:08 41.13601 16.76149 146 ft 3 kts 28°
2026-04-29 15:08 41.13584 16.76143 147 ft 3 kts 342°
2026-04-29 15:08 41.13571 16.76156 148 ft 0 kts 285°
2026-04-29 15:09 41.13572 16.76153 148 ft 1 kts 285°
2026-04-29 15:09 41.13605 16.76024 148 ft 35 kts 285°
2026-04-29 15:09 41.13656 16.75759 156 ft 29 kts 282°
2026-04-29 15:09 41.13702 16.75546 158 ft 19 kts 353°
2026-04-29 15:10 41.13738 16.75631 157 ft 10 kts 89°
2026-04-29 15:10 41.13816 16.75911 148 ft 79 kts 70°
2026-04-29 15:10 41.14145 16.77060 311 ft 172 kts 67°
2026-04-29 15:10 41.14979 16.78511 901 ft 229 kts 40°
2026-04-29 15:11 41.16442 16.79807 1725 ft 274 kts 33°
2026-04-29 15:11 41.18124 16.81282 2845 ft 301 kts 38°
2026-04-29 15:11 41.19887 16.82767 4466 ft 297 kts 29°
2026-04-29 15:11 41.21665 16.84084 6070 ft 288 kts 27°
2026-04-29 15:12 41.23383 16.85361 7582 ft 284 kts 27°
2026-04-29 15:12 41.24524 16.86220 8561 ft 285 kts 27°
2026-04-29 15:12 41.26841 16.87994 10393 ft 292 kts 27°
2026-04-29 15:12 41.28665 16.89402 11146 ft 318 kts 27°
2026-04-29 15:13 41.30668 16.90958 11636 ft 349 kts 28°
2026-04-29 15:13 41.32815 16.92637 12131 ft 375 kts 28°
2026-04-29 15:13 41.35113 16.94442 12937 ft 390 kts 28°
2026-04-29 15:13 41.37481 16.96308 13888 ft 399 kts 28°
2026-04-29 15:14 41.39894 16.98211 14739 ft 406 kts 28°
2026-04-29 15:14 41.42345 17.00144 15606 ft 413 kts 28°
2026-04-29 15:14 41.44838 17.02112 16475 ft 419 kts 28°
2026-04-29 15:14 41.47365 17.04108 17341 ft 425 kts 28°
2026-04-29 15:15 41.49927 17.06133 18137 ft 431 kts 28°
2026-04-29 15:15 41.52491 17.08161 18828 ft 437 kts 28°
2026-04-29 15:15 41.55147 17.10265 19549 ft 442 kts 28°
2026-04-29 15:15 41.57782 17.12354 20280 ft 446 kts 28°
2026-04-29 15:16 41.60460 17.14478 20993 ft 451 kts 28°
2026-04-29 15:16 41.63139 17.16605 21676 ft 455 kts 27°
2026-04-29 15:16 41.65871 17.18777 22351 ft 459 kts 27°
2026-04-29 15:16 41.68626 17.20970 22840 ft 461 kts 27°
2026-04-29 15:17 41.71387 17.23170 23011 ft 463 kts 27°
2026-04-29 15:17 41.74156 17.25378 22996 ft 464 kts 27°
2026-04-29 15:17 41.76935 17.27596 23004 ft 465 kts 27°
2026-04-29 15:17 41.78778 17.29069 23000 ft 465 kts 27°
2026-04-29 15:18 41.82498 17.32044 22999 ft 465 kts 27°
2026-04-29 15:18 41.85277 17.34270 23009 ft 466 kts 27°
2026-04-29 15:18 41.88022 17.36469 23005 ft 466 kts 27°
2026-04-29 15:18 41.90800 17.38699 23004 ft 466 kts 27°
2026-04-29 15:19 41.93580 17.40932 23018 ft 466 kts 27°
2026-04-29 15:19 41.96359 17.43165 23005 ft 465 kts 27°
2026-04-29 15:19 41.99136 17.45400 23005 ft 465 kts 27°
2026-04-29 15:19 42.01911 17.47636 23022 ft 465 kts 27°
2026-04-29 15:20 42.04687 17.49874 23009 ft 465 kts 27°
2026-04-29 15:20 42.07461 17.52113 23040 ft 465 kts 27°
2026-04-29 15:20 42.09302 17.53601 23018 ft 465 kts 27°
2026-04-29 15:20 42.12975 17.56571 23015 ft 465 kts 27°
2026-04-29 15:21 42.15747 17.58816 23016 ft 465 kts 27°
2026-04-29 15:21 42.18521 17.61065 23018 ft 465 kts 27°
2026-04-29 15:21 42.21290 17.63311 23018 ft 465 kts 27°
2026-04-29 15:21 42.24060 17.65561 23020 ft 465 kts 27°
2026-04-29 15:22 42.25887 17.67046 23028 ft 465 kts 27°
2026-04-29 15:22 42.29418 17.69929 23016 ft 431 kts 27°
2026-04-29 15:22 42.31910 17.71970 22827 ft 410 kts 27°
2026-04-29 15:22 42.34301 17.73923 22516 ft 393 kts 26°
2026-04-29 15:23 42.36598 17.75798 22248 ft 378 kts 26°
2026-04-29 15:23 42.38809 17.77604 21953 ft 365 kts 26°
2026-04-29 15:23 42.40241 17.78774 21613 ft 361 kts 26°
2026-04-29 15:23 42.42383 17.80520 20982 ft 359 kts 26°
2026-04-29 15:24 42.45226 17.82842 20201 ft 355 kts 26°
2026-04-29 15:24 42.46623 17.83985 19811 ft 353 kts 26°
2026-04-29 15:24 42.49396 17.86257 19043 ft 350 kts 27°
2026-04-29 15:24 42.50798 17.87407 18673 ft 348 kts 27°
2026-04-29 15:25 42.53523 17.89645 17909 ft 344 kts 27°
2026-04-29 15:25 42.54900 17.90776 17500 ft 341 kts 27°
2026-04-29 15:25 42.57568 17.92971 16733 ft 336 kts 27°
2026-04-29 15:25 42.58914 17.94079 16351 ft 333 kts 27°
2026-04-29 15:26 42.60859 17.95682 15790 ft 330 kts 27°
2026-04-29 15:26 42.62812 17.97292 15236 ft 327 kts 27°
2026-04-29 15:26 42.64563 17.99247 14711 ft 329 kts 50°
2026-04-29 15:26 42.65475 18.02037 14451 ft 323 kts 79°
2026-04-29 15:27 42.65298 18.04993 14234 ft 311 kts 111°
2026-04-29 15:27 42.64308 18.07517 14066 ft 297 kts 124°
2026-04-29 15:27 42.62870 18.10555 13846 ft 281 kts 123°
2026-04-29 15:27 42.62185 18.12061 13744 ft 274 kts 122°
2026-04-29 15:28 42.61235 18.14243 13595 ft 263 kts 121°
2026-04-29 15:28 42.60345 18.16361 13406 ft 255 kts 120°
2026-04-29 15:28 42.59503 18.18416 13141 ft 251 kts 120°
2026-04-29 15:28 42.58664 18.20493 12842 ft 248 kts 120°
2026-04-29 15:29 42.57829 18.22562 11924 ft 262 kts 120°
2026-04-29 15:29 42.55900 18.26960 8703 ft 266 kts 124°
2026-04-29 15:30 42.54664 18.31373 5618 ft 253 kts 86°
2026-04-29 15:30 42.54610 18.33664 4252 ft 238 kts 125°
2026-04-29 15:30 42.53290 18.34335 3285 ft 208 kts 197°
2026-04-29 15:30 42.52496 18.32803 2321 ft 211 kts 264°
2026-04-29 15:31 42.53095 18.31158 1789 ft 196 kts 322°
2026-04-29 15:31 42.54317 18.30411 925 ft 199 kts 334°
2026-04-29 15:31 42.55214 18.29210 687 ft 171 kts 294°
2026-04-29 15:31 42.55737 18.27841 512 ft 153 kts 294°
2026-04-29 15:32 42.56078 18.26974 521 ft 56 kts 300°
2026-04-29 15:32 42.56140 18.26587 524 ft 24 kts 245°
2026-04-29 15:32 42.56027 18.26465 524 ft 14 kts 208°
2026-04-29 15:32 42.56021 18.26461 524 ft 0 kts 208°